Location: ?????
(32.9890°N, 35.5706°E)
Time: 19:36:24
(UTC+00:00)

Daily predictions for brighter satellites

Satellite Brightness Start Highest point End
(mag) Time Altitude Azimuth Time Altitude Azimuth Time Altitude Azimuth
Cosmos 1980 3.7 14:47:19 10° SSW 14:52:59 79° ESE 14:58:41 10° NNE
CORIOLIS 4.5 14:48:23 10° SE 14:53:26 44° ENE 14:58:33 10° N
Envisat 3.1 14:50:28 10° SSE 14:55:33 86° WSW 15:00:38 10° NNW
Nadezhda 1 Rocket 4.1 14:52:18 10° S 14:58:34 82° E 15:04:57 10° N
CZ-4B R/B 1.7 14:56:52 10° NNE 14:59:46 38° E 15:02:41 10° S
CRYOSAT 2 4.4 14:56:33 10° NNE 15:01:24 62° E 15:06:14 10° S
H-2A R/B 2.9 14:57:44 10° S 15:02:09 73° WSW 15:06:28 10° NNW
Cosmos 2292 4.1 15:00:59 10° S 15:03:59 86° E 15:07:08 10° N
COSMO-SKYMED 1 3.5 15:00:23 10° NE 15:04:09 29° E 15:07:54 10° SSE
Cosmos 1743 Rocket 3.5 15:00:39 10° N 15:05:08 79° E 15:09:33 10° S
Meteosat 1 Rocket2 4.4 14:58:58 10° W 15:05:21 48° SSW 15:09:43 10° ESE
Okean O Rocket 1.6 15:01:27 10° SSE 15:05:42 60° ENE 15:10:00 10° N
Cosmos 1933 4.3 15:11:15 10° SSE 15:14:40 27° E 15:18:06 10° NNE
USA 281 4.2 15:11:49 10° ESE 15:16:50 24° ENE 15:21:53 10° N
Sich 1 3.6 15:13:11 10° NNE 15:17:12 34° E 15:21:10 10° SE
Cosmos 2154 Rocket 4.0 15:10:51 10° N 15:17:12 80° E 15:23:33 10° S
Orbus 7S 4.2 15:17:07 10° WSW 15:19:32 26° S 15:21:53 10° ESE
YAOGAN 6 4.2 15:18:19 10° S 15:21:48 40° W 15:25:16 10° NNW
SL-16 R/B 2.6 15:16:56 10° S 15:22:11 41° ESE 15:27:28 10° NE
Cosmos 405 Rocket 3.0 15:19:24 10° NNW 15:23:19 73° W 15:27:16 10° S
SMAP 3.3 15:18:46 10° S 15:23:23 74° WSW 15:28:03 10° NNW
Cosmos 2341 Rocket 4.3 15:18:28 10° N 15:24:28 46° E 15:30:29 10° SSE
Cosmos 1805 Rocket 3.5 15:21:02 10° N 15:25:27 62° E 15:29:50 10° SSE
Aureole 2 Rocket 4.4 15:23:39 10° NW 15:26:07 27° WSW 15:28:39 10° SSW
Helios 1A Rocket 4.4 15:24:10 10° ESE 15:27:03 16° ENE 15:29:17 10° NNE
Cosmos 1151 Rocket 3.7 15:24:39 10° SSE 15:28:31 33° E 15:32:23 10° NNE
Cosmos 1328 Rocket 4.3 15:27:17 10° SSE 15:31:03 31° E 15:34:40 11° NNE
Cosmos 1666 Rocket 4.3 15:27:31 10° NNE 15:31:27 31° E 15:35:23 10° SE
Feng Yun 1-1 Rocket 4.4 15:26:48 10° SSE 15:32:30 54° ENE 15:38:04 10° N
CZ-2C R/B 3.9 15:31:37 10° SE 15:35:55 26° ENE 15:40:03 10° NNE
Cosmos 1782 3.9 15:33:35 10° SE 15:36:38 22° E 15:36:50 22° E
ATLAS 5 CENTAUR R/B 4.2 15:33:04 10° NW 15:38:45 37° WSW 15:45:04 10° S
CZ-3B R/B 1.6 15:34:46 10° SSW 15:40:20 59° SE 15:41:23 31° ENE
MOS 1 Rocket 4.2 15:35:53 10° NNE 15:40:51 36° E 15:45:46 10° SSE
Cosmos 1606 3.2 15:37:01 10° SSW 15:40:52 63° W 15:44:43 10° N
Cosmos 1867 3.6 15:36:00 10° SSW 15:41:24 82° WNW 15:46:50 10° NNE
X-37B 2.7 15:40:05 10° S 15:41:53 14° SE 15:41:59 14° SE
Cosmos 389 Rocket 3.1 15:38:50 10° SSW 15:42:13 56° W 15:45:36 10° N
Cosmos 2181 Rocket 4.0 15:42:05 10° S 15:48:29 75° E 15:54:54 10° N
EO 1 Delta rocket 4.5 15:46:22 10° NNE 15:51:55 68° E 15:58:58 10° S
SKYMED 2 3.8 15:47:57 10° N 15:52:17 71° WNW 15:56:35 10° SSW
SL-8 Rocket 4.0 15:46:33 10° N 15:52:42 59° E 15:58:50 10° SSE
Cosmos 1818 3.5 15:50:03 10° NNW 15:55:31 74° ENE 16:00:56 10° SSE
Lacrosse 5 rocket 0.9 15:52:40 10° SW 15:56:23 90° NNE 15:57:35 40° NE
Cosmos 2278 Rocket 2.6 15:51:56 10° NNW 15:57:33 65° WSW 16:03:09 10° S
CZ-4 R/B 3.4 15:54:58 10° SE 16:01:50 12° N 16:02:12 10° N
Cosmos 1633 Rocket 3.0 15:58:53 10° N 16:03:12 61° E 16:07:29 10° SSE
Meteor 1-25 Rocket 4.2 15:58:56 10° N 16:04:29 60° E 16:10:05 10° SSE
IRS-1C Rocket 4.0 16:01:12 10° SSE 16:06:28 86° ENE 16:11:46 10° NNW
CZ-2D R/B 3.0 16:03:04 10° SSE 16:06:52 82° ENE 16:10:40 10° N
Cosmos 1939 Rocket 3.6 16:09:25 10° S 16:13:09 52° W 16:16:56 10° NNW
Cosmos 1125 Rocket 4.2 16:09:04 10° NNW 16:14:08 54° WSW 16:19:12 10° S
Orbus 7S 4.2 16:13:34 10° WSW 16:16:18 29° S 16:16:18 29° S
USA 267 3.5 16:18:26 39° ENE 16:19:54 45° NE 16:26:01 10° NNW
Cosmos 1689 Rocket 4.4 16:21:51 17° NW 16:23:12 23° WNW 16:25:35 10° SW
SL-24 R/B - RUBIN 2 4.5 16:21:00 10° NW 16:26:57 65° WSW 16:32:08 10° SSE
OAO 1 4.4 16:22:07 10° W 16:27:39 75° N 16:28:29 62° NE
Okean-O 2.6 16:24:19 10° S 16:28:43 83° WSW 16:33:10 10° NNW
Meteor 1-4 Rocket 3.1 16:25:04 10° SSW 16:28:08 55° SW 16:28:08 55° SW
DMSP B5D1-3 4.4 16:28:32 32° N 16:30:59 87° WNW 16:36:07 10° SSW
Cosmos 2218 Rocket 4.1 16:30:04 10° N 16:36:11 72° W 16:42:17 10° S
Cosmos 1515 Rocket 3.8 16:34:28 10° SSW 16:38:36 68° W 16:38:36 68° W
ATLAS 3B CENTAUR R/B 3.6 16:37:07 10° WSW 16:37:25 13° WSW 16:37:25 13° WSW
H-2A R/B 3.2 16:35:06 10° SSE 16:42:58 33° N 16:45:46 10° N
Cosmos 2366 rocket 4.5 16:42:40 10° NNW 16:48:43 58° W 16:54:42 10° S
USA 281 3.7 16:54:28 10° S 17:00:51 56° WSW 17:07:18 10° NNW
Cosmos 2297 4.2 16:57:51 10° NNW 17:02:18 54° NW 17:02:18 54° NW
SL-16 R/B 4.3 17:02:01 10° WSW 17:06:24 23° WNW 17:09:55 13° NNW
Cosmos 1943 Rocket 4.4 17:07:16 10° NNW 17:07:55 14° NNW 17:07:55 14° NNW
ATLAS CENTAUR R/B 4.2 17:35:44 10° NW 17:47:59 59° NW 17:47:59 59° NW
